TimeCST,TemperatureF,Dew PointF,Humidity,Sea Level PressureIn,VisibilityMPH,Wind Direction,Wind SpeedMPH,Gust SpeedMPH,PrecipitationIn,Events,Conditions,WindDirDegrees,DateUTC
12:52 AM,12.9,3.0,65,30.20,10.0,WNW,10.4,-,N/A,,Clear,290,2014-02-24 06:52:00
1:52 AM,12.9,3.0,65,30.21,10.0,West,10.4,-,N/A,,Clear,280,2014-02-24 07:52:00
2:52 AM,12.0,3.0,67,30.20,10.0,WNW,9.2,-,N/A,,Clear,290,2014-02-24 08:52:00
3:52 AM,12.0,3.0,67,30.20,10.0,West,11.5,-,N/A,,Clear,280,2014-02-24 09:52:00
4:52 AM,10.9,1.9,67,30.21,10.0,West,9.2,-,N/A,,Clear,280,2014-02-24 10:52:00
5:52 AM,10.9,1.9,67,30.22,10.0,WNW,13.8,21.9,N/A,,Clear,290,2014-02-24 11:52:00
6:52 AM,10.0,1.0,67,30.22,10.0,WNW,12.7,-,N/A,,Partly Cloudy,290,2014-02-24 12:52:00
7:52 AM,10.9,1.0,64,30.24,10.0,WNW,17.3,23.0,N/A,,Partly Cloudy,290,2014-02-24 13:52:00
8:52 AM,14.0,1.9,59,30.25,10.0,West,12.7,-,N/A,,Partly Cloudy,280,2014-02-24 14:52:00
9:52 AM,16.0,3.0,57,30.25,10.0,WNW,11.5,-,N/A,,Partly Cloudy,290,2014-02-24 15:52:00
10:52 AM,18.0,3.0,52,30.26,10.0,West,15.0,20.7,N/A,,Partly Cloudy,280,2014-02-24 16:52:00
11:52 AM,19.9,3.9,50,30.24,10.0,WNW,12.7,21.9,N/A,,Partly Cloudy,290,2014-02-24 17:52:00
12:52 PM,21.9,5.0,48,30.23,10.0,West,16.1,23.0,N/A,,Partly Cloudy,270,2014-02-24 18:52:00
1:52 PM,21.9,5.0,48,30.22,10.0,WNW,15.0,24.2,N/A,,Partly Cloudy,290,2014-02-24 19:52:00
2:52 PM,23.0,5.0,46,30.22,10.0,West,12.7,-,N/A,,Scattered Clouds,280,2014-02-24 20:52:00
3:52 PM,21.9,3.9,46,30.22,10.0,West,12.7,21.9,N/A,,Mostly Cloudy,280,2014-02-24 21:52:00
4:52 PM,21.0,3.9,48,30.22,10.0,West,13.8,-,N/A,,Mostly Cloudy,270,2014-02-24 22:52:00
5:52 PM,21.0,3.9,48,30.23,10.0,WNW,11.5,-,N/A,,Mostly Cloudy,300,2014-02-24 23:52:00
6:52 PM,21.0,3.0,46,30.24,10.0,West,9.2,-,N/A,,Mostly Cloudy,270,2014-02-25 00:52:00
7:52 PM,19.9,3.9,50,30.23,10.0,WNW,8.1,-,N/A,,Overcast,300,2014-02-25 01:52:00
8:52 PM,19.9,3.9,50,30.24,10.0,WNW,8.1,-,N/A,,Overcast,290,2014-02-25 02:52:00
9:52 PM,19.0,3.0,50,30.23,10.0,NW,11.5,-,N/A,,Overcast,310,2014-02-25 03:52:00
10:52 PM,18.0,3.9,54,30.24,10.0,NW,9.2,-,N/A,,Overcast,320,2014-02-25 04:52:00
11:52 PM,17.1,3.9,56,30.24,10.0,NW,8.1,-,N/A,,Mostly Cloudy,310,2014-02-25 05:52:00